| time (UTC) | temp C | wind direction | speed KPH | gust KPH | rain 1hr cm | rain 24hr cm | rain mn cm | humidity % | barometer mb |
| 20260506044827 | 18 | 262 | 0.0 | 0.0 | 0.00 | 0.00 | 0.00 | 66 | 1011.0 |
| 20260506044325 | 18 | 286 | 0.0 | 1.6 | 0.00 | 0.00 | 0.00 | 70 | 1011.3 |
| 20260506043822 | 18 | 267 | 0.0 | 0.0 | 0.00 | 0.00 | 0.00 | 68 | 1011.5 |
| 20260506043319 | 18 | 262 | 0.0 | 0.0 | 0.00 | 0.00 | 0.00 | 69 | 1011.4 |
| 20260506042818 | 18 | 262 | 0.0 | 0.0 | 0.00 | 0.00 | 0.00 | 68 | 1011.3 |
| 20260506042316 | 18 | 262 | 0.0 | 0.0 | 0.00 | 0.00 | 0.00 | 67 | 1011.2 |
| 20260506041815 | 18 | 262 | 0.0 | 0.0 | 0.00 | 0.00 | 0.00 | 65 | 1011.3 |
| 20260506041311 | 18 | 263 | 0.0 | 0.0 | 0.00 | 0.00 | 0.00 | 62 | 1011.2 |
| 20260506040809 | 18 | 262 | 0.0 | 0.0 | 0.00 | 0.00 | 0.00 | 61 | 1010.9 |
| 20260506040306 | 18 | 262 | 0.0 | 0.0 | 0.00 | 0.00 | 0.00 | 62 | 1011.0 |
| 20260506035802 | 18 | 262 | 0.0 | 0.0 | 0.00 | 0.00 | 0.00 | 63 | 1010.9 |
| 20260506035259 | 18 | 262 | 0.0 | 0.0 | 0.00 | 0.00 | 0.00 | 63 | 1011.0 |
| 20260506034756 | 18 | 263 | 0.0 | 0.0 | 0.00 | 0.00 | 0.00 | 63 | 1011.2 |
| 20260506034254 | 18 | 276 | 0.0 | 0.0 | 0.00 | 0.00 | 0.00 | 65 | 1011.1 |
| 20260506033750 | 18 | 267 | 0.0 | 0.0 | 0.00 | 0.00 | 0.00 | 63 | 1011.0 |
| 20260506033247 | 18 | 287 | 0.0 | 0.0 | 0.00 | 0.00 | 0.00 | 64 | 1011.3 |
| 20260506032744 | 18 | 269 | 0.0 | 0.0 | 0.00 | 0.00 | 0.00 | 64 | 1011.2 |
| 20260506032241 | 18 | 254 | 0.0 | 0.0 | 0.00 | 0.00 | 0.00 | 65 | 1011.1 |
| 20260506031738 | 18 | 283 | 0.0 | 0.0 | 0.00 | 0.00 | 0.00 | 64 | 1011.5 |
| 20260506031235 | 18 | 273 | 0.0 | 0.0 | 0.00 | 0.00 | 0.00 | 63 | 1011.2 |
| 20260506030733 | 18 | 247 | 0.0 | 0.0 | 0.00 | 0.00 | 0.00 | 62 | 1011.3 |
| 20260506030231 | 18 | 232 | 0.0 | 0.0 | 0.00 | 0.00 | 0.00 | 63 | 1011.2 |
| 20260506025727 | 19 | 279 | 0.0 | 0.0 | 0.00 | 0.00 | 0.00 | 62 | 1011.4 |
| 20260506025224 | 19 | 283 | 0.0 | 0.0 | 0.00 | 0.00 | 0.00 | 62 | 1011.2 |
| 20260506024721 | 19 | 282 | 0.0 | 0.0 | 0.00 | 0.00 | 0.00 | 61 | 1011.3 |
| 20260506024217 | 19 | 282 | 0.0 | 0.0 | 0.00 | 0.00 | 0.00 | 61 | 1011.2 |
| 20260506023713 | 18 | 282 | 0.0 | 0.0 | 0.00 | 0.00 | 0.00 | 61 | 1011.2 |
| 20260506023211 | 18 | 283 | 0.0 | 0.0 | 0.00 | 0.00 | 0.00 | 62 | 1011.3 |
| 20260506022708 | 18 | 282 | 0.0 | 0.0 | 0.00 | 0.00 | 0.00 | 63 | 1011.2 |
| 20260506022205 | 18 | 284 | 0.0 | 0.0 | 0.00 | 0.00 | 0.00 | 64 | 1011.2 |
| 20260506021703 | 18 | 282 | 0.0 | 0.0 | 0.00 | 0.00 | 0.00 | 63 | 1011.1 |
| 20260506021200 | 18 | 285 | 0.0 | 0.0 | 0.00 | 0.00 | 0.00 | 63 | 1011.1 |
| 20260506020657 | 18 | 258 | 0.0 | 0.0 | 0.00 | 0.00 | 0.00 | 63 | 1011.1 |
| 20260506020155 | 18 | 272 | 0.0 | 0.0 | 0.00 | 0.00 | 0.00 | 63 | 1011.0 |
| 20260506015652 | 18 | 272 | 0.0 | 0.0 | 0.00 | 0.00 | 0.00 | 63 | 1011.0 |
| 20260506015150 | 17 | 283 | 0.0 | 0.0 | 0.00 | 0.00 | 0.00 | 65 | 1011.1 |
| 20260506014647 | 18 | 274 | 0.0 | 0.0 | 0.00 | 0.00 | 0.00 | 66 | 1011.0 |
| 20260506014142 | 18 | 282 | 0.0 | 0.0 | 0.00 | 0.00 | 0.00 | 62 | 1010.9 |
| 20260506013640 | 18 | 277 | 0.0 | 0.0 | 0.00 | 0.00 | 0.00 | 62 | 1011.1 |
| 20260506013137 | 18 | 282 | 0.0 | 0.0 | 0.00 | 0.00 | 0.00 | 62 | 1010.7 |
| 20260506012633 | 18 | 283 | 0.0 | 0.0 | 0.00 | 0.00 | 0.00 | 62 | 1011.0 |
| 20260506012130 | 18 | 283 | 0.0 | 0.0 | 0.00 | 0.00 | 0.00 | 62 | 1010.6 |
| 20260506011628 | 18 | 288 | 0.0 | 0.0 | 0.00 | 0.00 | 0.00 | 61 | 1010.9 |
| 20260506011124 | 18 | 283 | 0.0 | 0.0 | 0.00 | 0.00 | 0.00 | 61 | 1010.8 |
| 20260506010623 | 18 | 283 | 0.0 | 0.0 | 0.00 | 0.00 | 0.00 | 60 | 1010.7 |
| 20260506010119 | 18 | 283 | 0.0 | 0.0 | 0.00 | 0.00 | 0.00 | 60 | 1010.7 |
| 20260506005616 | 18 | 283 | 0.0 | 0.0 | 0.00 | 0.00 | 0.00 | 60 | 1010.6 |
| 20260506005112 | 19 | 286 | 0.0 | 0.0 | 0.00 | 0.00 | 0.00 | 59 | 1010.7 |
| 20260506004609 | 19 | 283 | 0.0 | 0.0 | 0.00 | 0.00 | 0.00 | 59 | 1010.8 |
| 20260506004106 | 20 | 283 | 0.0 | 0.0 | 0.00 | 0.00 | 0.00 | 59 | 1010.8 |
| 20260506003603 | 20 | 283 | 0.0 | 0.0 | 0.00 | 0.00 | 0.00 | 57 | 1010.7 |
| 20260506003059 | 20 | 267 | 0.0 | 0.0 | 0.00 | 0.00 | 0.00 | 56 | 1010.6 |
| 20260506002554 | 21 | 257 | 0.0 | 0.0 | 0.00 | 0.00 | 0.00 | 54 | 1010.5 |
| 20260506002051 | 21 | 245 | 0.0 | 0.0 | 0.00 | 0.00 | 0.00 | 53 | 1010.5 |
| 20260506001547 | 21 | 252 | 0.0 | 0.0 | 0.00 | 0.00 | 0.00 | 54 | 1010.7 |
| 20260506001044 | 21 | 254 | 0.0 | 0.0 | 0.00 | 0.00 | 0.00 | 52 | 1010.6 |
| 20260506000542 | 21 | 252 | 0.0 | 0.0 | 0.00 | 0.00 | 0.00 | 52 | 1010.8 |
| 20260506000039 | 21 | 262 | 0.0 | 0.0 | 0.00 | 0.00 | 0.00 | 54 | 1010.8 |
| 20260505235537 | 22 | 257 | 0.0 | 0.0 | 0.00 | 0.00 | 0.00 | 52 | 1010.8 |
| 20260505235034 | 22 | 233 | 0.0 | 0.0 | 0.00 | 0.00 | 0.00 | 50 | 1010.6 |
| 20260505234531 | 22 | 233 | 0.0 | 0.0 | 0.00 | 0.00 | 0.00 | 50 | 1010.7 |
| 20260505234027 | 22 | 252 | 0.0 | 0.0 | 0.00 | 0.00 | 0.00 | 49 | 1010.4 |
| 20260505233525 | 22 | 233 | 0.0 | 0.0 | 0.00 | 0.00 | 0.00 | 49 | 1010.6 |
| 20260505233022 | 22 | 232 | 1.6 | 1.6 | 0.00 | 0.00 | 0.00 | 49 | 1010.4 |
| 20260505232520 | 22 | 246 | 0.0 | 0.0 | 0.00 | 0.00 | 0.00 | 47 | 1010.6 |
| 20260505232017 | 22 | 242 | 0.0 | 0.0 | 0.00 | 0.00 | 0.00 | 48 | 1010.7 |
| 20260505231514 | 22 | 234 | 0.0 | 0.0 | 0.00 | 0.00 | 0.00 | 49 | 1010.7 |
| 20260505231013 | 22 | 241 | 0.0 | 1.6 | 0.00 | 0.00 | 0.00 | 48 | 1010.6 |
| 20260505230510 | 22 | 230 | 1.6 | 1.6 | 0.00 | 0.00 | 0.00 | 47 | 1010.7 |
| 20260505230007 | 22 | 267 | 1.6 | 1.6 | 0.00 | 0.00 | 0.00 | 50 | 1010.7 |
| 20260505225503 | 23 | 195 | 1.6 | 1.6 | 0.00 | 0.00 | 0.00 | 48 | 1010.7 |
| 20260505224959 | 23 | 235 | 0.0 | 0.0 | 0.00 | 0.00 | 0.00 | 48 | 1010.9 |
| 20260505224456 | 23 | 235 | 1.6 | 1.6 | 0.00 | 0.00 | 0.00 | 48 | 1010.9 |
| 20260505223953 | 23 | 236 | 0.0 | 0.0 | 0.00 | 0.00 | 0.00 | 46 | 1010.8 |
| 20260505223450 | 23 | 236 | 1.6 | 1.6 | 0.00 | 0.00 | 0.00 | 46 | 1010.8 |
| 20260505222947 | 23 | 230 | 3.2 | 3.2 | 0.00 | 0.00 | 0.00 | 46 | 1011.1 |
| 20260505222443 | 23 | 236 | 1.6 | 1.6 | 0.00 | 0.00 | 0.00 | 47 | 1010.8 |
| 20260505221939 | 23 | 273 | 0.0 | 0.0 | 0.00 | 0.00 | 0.00 | 47 | 1010.8 |
| 20260505221436 | 23 | 239 | 0.0 | 0.0 | 0.00 | 0.00 | 0.00 | 47 | 1010.9 |
| 20260505220933 | 23 | 222 | 1.6 | 3.2 | 0.00 | 0.00 | 0.00 | 45 | 1010.8 |
| 20260505220430 | 23 | 242 | 0.0 | 0.0 | 0.00 | 0.00 | 0.00 | 46 | 1010.3 |
| 20260505215928 | 23 | 243 | 3.2 | 4.8 | 0.00 | 0.00 | 0.00 | 46 | 1010.4 |
| 20260505215426 | 23 | 160 | 4.8 | 8.0 | 0.00 | 0.00 | 0.00 | 45 | 1010.5 |
| 20260505214923 | 23 | 272 | 0.0 | 0.0 | 0.00 | 0.00 | 0.00 | 45 | 1010.7 |
| 20260505214421 | 23 | 235 | 1.6 | 1.6 | 0.00 | 0.00 | 0.00 | 45 | 1011.0 |
| 20260505213918 | 23 | 270 | 4.8 | 8.0 | 0.00 | 0.00 | 0.00 | 44 | 1010.8 |
| 20260505213416 | 23 | 145 | 4.8 | 8.0 | 0.00 | 0.00 | 0.00 | 44 | 1010.8 |
| 20260505212912 | 23 | 220 | 4.8 | 8.0 | 0.00 | 0.00 | 0.00 | 43 | 1010.5 |
| 20260505212408 | 24 | 230 | 3.2 | 3.2 | 0.00 | 0.00 | 0.00 | 43 | 1010.7 |
| 20260505211905 | 24 | 252 | 0.0 | 1.6 | 0.00 | 0.00 | 0.00 | 45 | 1010.8 |
| 20260505211403 | 24 | 228 | 3.2 | 3.2 | 0.00 | 0.00 | 0.00 | 45 | 1010.9 |
| 20260505210859 | 23 | 161 | 4.8 | 4.8 | 0.00 | 0.00 | 0.00 | 42 | 1011.0 |
| 20260505210356 | 23 | 254 | 4.8 | 4.8 | 0.00 | 0.00 | 0.00 | 45 | 1010.9 |
| 20260505205853 | 23 | 241 | 1.6 | 1.6 | 0.00 | 0.00 | 0.00 | 45 | 1010.9 |
| 20260505205351 | 23 | 182 | 4.8 | 4.8 | 0.00 | 0.00 | 0.00 | 45 | 1010.9 |
| 20260505204848 | 23 | 230 | 6.4 | 8.0 | 0.00 | 0.00 | 0.00 | 45 | 1010.8 |
| 20260505204345 | 24 | 260 | 3.2 | 4.8 | 0.00 | 0.00 | 0.00 | 43 | 1010.9 |
| 20260505203842 | 24 | 256 | 3.2 | 3.2 | 0.00 | 0.00 | 0.00 | 46 | 1011.0 |
| 20260505203339 | 23 | 269 | 1.6 | 3.2 | 0.00 | 0.00 | 0.00 | 44 | 1010.6 |
| 20260505202835 | 23 | 242 | 4.8 | 9.7 | 0.00 | 0.00 | 0.00 | 44 | 1011.0 |
| 20260505202331 | 24 | 255 | 1.6 | 1.6 | 0.00 | 0.00 | 0.00 | 44 | 1011.1 |
| 20260505201828 | 24 | 241 | 4.8 | 8.0 | 0.00 | 0.00 | 0.00 | 41 | 1011.3 |
| 20260505201326 | 24 | 254 | 1.6 | 1.6 | 0.00 | 0.00 | 0.00 | 42 | 1011.4 |
| 20260505200824 | 23 | 222 | 3.2 | 3.2 | 0.00 | 0.00 | 0.00 | 45 | 1011.1 |
| 20260505200321 | 24 | 273 | 3.2 | 3.2 | 0.00 | 0.00 | 0.00 | 41 | 1011.4 |
| 20260505195816 | 24 | 214 | 3.2 | 4.8 | 0.00 | 0.00 | 0.00 | 43 | 1011.0 |
| 20260505195314 | 24 | 218 | 1.6 | 3.2 | 0.00 | 0.00 | 0.00 | 41 | 1011.3 |
| 20260505194810 | 24 | 208 | 6.4 | 8.0 | 0.00 | 0.00 | 0.00 | 43 | 1011.4 |
| 20260505194308 | 24 | 167 | 4.8 | 8.0 | 0.00 | 0.00 | 0.00 | 43 | 1011.6 |
| 20260505193803 | 25 | 235 | 6.4 | 8.0 | 0.00 | 0.00 | 0.00 | 43 | 1011.6 |
| 20260505193301 | 25 | 273 | 1.6 | 3.2 | 0.00 | 0.00 | 0.00 | 43 | 1011.6 |
| 20260505192759 | 24 | 245 | 4.8 | 4.8 | 0.00 | 0.00 | 0.00 | 44 | 1011.6 |
| 20260505192256 | 25 | 167 | 4.8 | 4.8 | 0.00 | 0.00 | 0.00 | 44 | 1011.8 |
| 20260505191754 | 25 | 212 | 0.0 | 1.6 | 0.00 | 0.00 | 0.00 | 45 | 1011.9 |
| 20260505191252 | 25 | 261 | 1.6 | 3.2 | 0.00 | 0.00 | 0.00 | 44 | 1012.0 |
| 20260505190748 | 25 | 247 | 3.2 | 3.2 | 0.00 | 0.00 | 0.00 | 42 | 1011.7 |
| 20260505190243 | 25 | 248 | 3.2 | 3.2 | 0.00 | 0.00 | 0.00 | 43 | 1012.0 |
| 20260505185740 | 24 | 244 | 3.2 | 3.2 | 0.00 | 0.00 | 0.00 | 44 | 1011.8 |
| 20260505185237 | 25 | 229 | 3.2 | 3.2 | 0.00 | 0.00 | 0.00 | 41 | 1012.2 |
| 20260505184732 | 25 | 167 | 4.8 | 8.0 | 0.00 | 0.00 | 0.00 | 40 | 1011.9 |
| 20260505184230 | 25 | 181 | 1.6 | 3.2 | 0.00 | 0.00 | 0.00 | 43 | 1012.0 |
| 20260505183727 | 25 | 205 | 4.8 | 4.8 | 0.00 | 0.00 | 0.00 | 40 | 1012.2 |
| 20260505183224 | 25 | 259 | 3.2 | 3.2 | 0.00 | 0.00 | 0.00 | 41 | 1012.2 |
| 20260505182721 | 25 | 148 | 8.0 | 11.3 | 0.00 | 0.00 | 0.00 | 39 | 1012.5 |
| 20260505182218 | 25 | 203 | 6.4 | 8.0 | 0.00 | 0.00 | 0.00 | 40 | 1012.5 |
| 20260505181714 | 25 | 231 | 3.2 | 3.2 | 0.00 | 0.00 | 0.00 | 42 | 1012.6 |
| 20260505181212 | 25 | 246 | 3.2 | 3.2 | 0.00 | 0.00 | 0.00 | 47 | 1012.4 |
| 20260505180708 | 25 | 252 | 0.0 | 1.6 | 0.00 | 0.00 | 0.00 | 44 | 1012.5 |
| 20260505180205 | 24 | 155 | 3.2 | 4.8 | 0.00 | 0.00 | 0.00 | 44 | 1012.7 |
| 20260505175701 | 25 | 169 | 1.6 | 4.8 | 0.00 | 0.00 | 0.00 | 43 | 1012.8 |
| 20260505175157 | 25 | 244 | 3.2 | 3.2 | 0.00 | 0.00 | 0.00 | 46 | 1012.9 |
| 20260505174654 | 25 | 255 | 1.6 | 3.2 | 0.00 | 0.00 | 0.00 | 43 | 1012.8 |
| 20260505174150 | 25 | 248 | 3.2 | 3.2 | 0.00 | 0.00 | 0.00 | 43 | 1013.1 |
| 20260505173647 | 25 | 224 | 4.8 | 4.8 | 0.00 | 0.00 | 0.00 | 44 | 1012.9 |
| 20260505173144 | 25 | 263 | 3.2 | 4.8 | 0.00 | 0.00 | 0.00 | 42 | 1012.8 |
| 20260505172641 | 25 | 257 | 0.0 | 1.6 | 0.00 | 0.00 | 0.00 | 43 | 1012.8 |
| 20260505172138 | 25 | 219 | 3.2 | 3.2 | 0.00 | 0.00 | 0.00 | 42 | 1013.1 |
| 20260505171637 | 25 | 263 | 0.0 | 1.6 | 0.00 | 0.00 | 0.00 | 45 | 1013.1 |
| 20260505171135 | 24 | 206 | 3.2 | 3.2 | 0.00 | 0.00 | 0.00 | 45 | 1013.3 |
| 20260505170632 | 25 | 207 | 4.8 | 4.8 | 0.00 | 0.00 | 0.00 | 43 | 1013.3 |
| 20260505170128 | 25 | 229 | 6.4 | 8.0 | 0.00 | 0.00 | 0.00 | 42 | 1013.1 |
| 20260505165623 | 25 | 250 | 3.2 | 4.8 | 0.00 | 0.00 | 0.00 | 43 | 1013.1 |
| 20260505165120 | 24 | 260 | 1.6 | 1.6 | 0.00 | 0.00 | 0.00 | 45 | 1012.8 |
| 20260505164615 | 24 | 258 | 8.0 | 9.7 | 0.00 | 0.00 | 0.00 | 45 | 1013.1 |
| 20260505164113 | 23 | 216 | 3.2 | 4.8 | 0.00 | 0.00 | 0.00 | 46 | 1013.0 |
| 20260505163612 | 23 | 246 | 0.0 | 1.6 | 0.00 | 0.00 | 0.00 | 45 | 1013.5 |
| 20260505163109 | 24 | 235 | 4.8 | 8.0 | 0.00 | 0.00 | 0.00 | 44 | 1013.6 |
| 20260505162606 | 23 | 256 | 1.6 | 1.6 | 0.00 | 0.00 | 0.00 | 45 | 1013.4 |
| 20260505162104 | 23 | 258 | 1.6 | 1.6 | 0.00 | 0.00 | 0.00 | 46 | 1013.5 |
| 20260505161600 | 23 | 267 | 4.8 | 4.8 | 0.00 | 0.00 | 0.00 | 48 | 1013.6 |
| 20260505161058 | 23 | 202 | 6.4 | 8.0 | 0.00 | 0.00 | 0.00 | 48 | 1013.6 |
| 20260505160555 | 23 | 254 | 3.2 | 3.2 | 0.00 | 0.00 | 0.00 | 48 | 1013.3 |
| 20260505153032 | 22 | 213 | 3.2 | 3.2 | 0.00 | 0.00 | 0.00 | 55 | 1013.7 |
| 20260505152529 | 22 | 260 | 1.6 | 1.6 | 0.00 | 0.00 | 0.00 | 56 | 1013.5 |
| 20260505152025 | 21 | 249 | 0.0 | 0.0 | 0.00 | 0.00 | 0.00 | 58 | 1013.7 |
| 20260505151520 | 21 | 310 | 0.0 | 0.0 | 0.00 | 0.00 | 0.00 | 58 | 1013.9 |
| 20260505151017 | 20 | 200 | 3.2 | 3.2 | 0.00 | 0.00 | 0.00 | 59 | 1013.8 |
| 20260505150514 | 20 | 216 | 3.2 | 3.2 | 0.00 | 0.00 | 0.00 | 60 | 1014.0 |
| 20260505140439 | 16 | 255 | 0.0 | 0.0 | 0.00 | 0.00 | 0.00 | 68 | 1013.8 |
| 20260505124852 | 12 | 273 | 0.0 | 0.0 | 0.00 | 0.00 | 0.00 | 87 | 1013.2 |
| 20260505124349 | 12 | 273 | 0.0 | 0.0 | 0.00 | 0.00 | 0.00 | 88 | 1013.1 |
| 20260505123845 | 11 | 273 | 0.0 | 0.0 | 0.00 | 0.00 | 0.00 | 91 | 1013.1 |
| 20260505123342 | 11 | 262 | 0.0 | 0.0 | 0.00 | 0.00 | 0.00 | 92 | 1013.2 |
| 20260505122838 | 11 | 262 | 0.0 | 0.0 | 0.00 | 0.00 | 0.00 | 94 | 1013.2 |
| 20260505122336 | 10 | 263 | 0.0 | 0.0 | 0.00 | 0.00 | 0.00 | 95 | 1013.0 |
| 20260505121832 | 10 | 261 | 0.0 | 0.0 | 0.00 | 0.00 | 0.00 | 95 | 1013.0 |
| 20260505121329 | 9 | 263 | 0.0 | 0.0 | 0.00 | 0.00 | 0.00 | 97 | 1013.0 |
| 20260505120825 | 8 | 262 | 0.0 | 0.0 | 0.00 | 0.00 | 0.00 | 97 | 1013.4 |
| 20260505120321 | 8 | 273 | 0.0 | 0.0 | 0.00 | 0.00 | 0.00 | 98 | 1013.0 |
| 20260505115820 | 8 | 274 | 0.0 | 0.0 | 0.00 | 0.00 | 0.00 | 98 | 1013.0 |
| 20260505115317 | 8 | 274 | 0.0 | 0.0 | 0.00 | 0.00 | 0.00 | 98 | 1013.0 |
| 20260505114815 | 8 | 273 | 0.0 | 0.0 | 0.00 | 0.00 | 0.00 | 99 | 1012.9 |
| 20260505114311 | 8 | 272 | 0.0 | 0.0 | 0.00 | 0.00 | 0.00 | 99 | 1013.1 |
| 20260505113808 | 7 | 273 | 0.0 | 0.0 | 0.00 | 0.00 | 0.00 | 99 | 1012.8 |
| 20260505113304 | 7 | 255 | 0.0 | 0.0 | 0.00 | 0.00 | 0.00 | 99 | 1012.6 |
| 20260505112800 | 7 | 273 | 0.0 | 0.0 | 0.00 | 0.00 | 0.00 | 99 | 1012.6 |
| 20260505112258 | 7 | 273 | 0.0 | 0.0 | 0.00 | 0.00 | 0.00 | 99 | 1012.7 |
| 20260505111758 | 7 | 288 | 0.0 | 0.0 | 0.00 | 0.00 | 0.00 | 99 | 1012.5 |
| 20260505111254 | 7 | 287 | 0.0 | 0.0 | 0.00 | 0.00 | 0.00 | 99 | 1012.4 |
| 20260505110750 | 7 | 273 | 0.0 | 0.0 | 0.00 | 0.00 | 0.00 | 99 | 1012.4 |
| 20260505110248 | 7 | 247 | 1.6 | 1.6 | 0.00 | 0.00 | 0.00 | 99 | 1012.6 |
| 20260505101722 | 7 | 256 | 0.0 | 0.0 | 0.00 | 0.00 | 0.00 | 98 | 1012.3 |
| 20260505101218 | 7 | 273 | 0.0 | 0.0 | 0.00 | 0.00 | 0.00 | 98 | 1012.5 |
| 20260505100715 | 7 | 280 | 0.0 | 0.0 | 0.00 | 0.00 | 0.00 | 98 | 1012.3 |
| 20260505100212 | 7 | 272 | 0.0 | 0.0 | 0.00 | 0.00 | 0.00 | 98 | 1012.3 |
| 20260505095707 | 7 | 254 | 0.0 | 0.0 | 0.00 | 0.00 | 0.00 | 98 | 1012.3 |
| 20260505095205 | 7 | 272 | 0.0 | 0.0 | 0.00 | 0.00 | 0.00 | 98 | 1012.3 |
| 20260505094700 | 7 | 293 | 0.0 | 0.0 | 0.00 | 0.00 | 0.00 | 97 | 1012.2 |
| 20260505094157 | 7 | 257 | 0.0 | 0.0 | 0.00 | 0.00 | 0.00 | 97 | 1012.3 |
| 20260505093653 | 8 | 257 | 0.0 | 0.0 | 0.00 | 0.00 | 0.00 | 97 | 1012.4 |
| 20260505093151 | 8 | 256 | 0.0 | 0.0 | 0.00 | 0.00 | 0.00 | 97 | 1012.3 |
| 20260505092647 | 8 | 257 | 0.0 | 0.0 | 0.00 | 0.00 | 0.00 | 97 | 1012.0 |
| 20260505092147 | 8 | 273 | 1.6 | 1.6 | 0.00 | 0.00 | 0.00 | 97 | 1012.0 |
| 20260505091643 | 8 | 293 | 0.0 | 0.0 | 0.00 | 0.00 | 0.00 | 96 | 1012.3 |
| 20260505091141 | 8 | 261 | 0.0 | 0.0 | 0.00 | 0.00 | 0.00 | 96 | 1012.2 |
| 20260505090638 | 8 | 273 | 0.0 | 0.0 | 0.00 | 0.00 | 0.00 | 96 | 1012.3 |
| 20260505090137 | 8 | 260 | 0.0 | 0.0 | 0.00 | 0.00 | 0.00 | 96 | 1012.5 |
| 20260505085633 | 8 | 273 | 0.0 | 0.0 | 0.00 | 0.00 | 0.00 | 96 | 1012.3 |
| 20260505085132 | 8 | 272 | 0.0 | 0.0 | 0.00 | 0.00 | 0.00 | 96 | 1012.4 |
| 20260505084629 | 8 | 273 | 0.0 | 0.0 | 0.00 | 0.00 | 0.00 | 96 | 1012.5 |
| 20260505084128 | 8 | 274 | 0.0 | 0.0 | 0.00 | 0.00 | 0.00 | 96 | 1012.4 |
| 20260505083625 | 8 | 273 | 0.0 | 0.0 | 0.00 | 0.00 | 0.00 | 95 | 1012.0 |
| 20260505083121 | 8 | 274 | 0.0 | 0.0 | 0.00 | 0.00 | 0.00 | 95 | 1012.4 |
| 20260505082617 | 8 | 273 | 0.0 | 0.0 | 0.00 | 0.00 | 0.00 | 95 | 1012.5 |
| 20260505082114 | 8 | 273 | 0.0 | 0.0 | 0.00 | 0.00 | 0.00 | 95 | 1012.5 |
| 20260505081610 | 8 | 282 | 0.0 | 0.0 | 0.00 | 0.00 | 0.00 | 95 | 1012.2 |
| 20260505081108 | 8 | 273 | 0.0 | 0.0 | 0.00 | 0.00 | 0.00 | 94 | 1012.4 |
| 20260505080603 | 8 | 274 | 0.0 | 0.0 | 0.00 | 0.00 | 0.00 | 94 | 1012.4 |
| 20260505080100 | 9 | 272 | 0.0 | 0.0 | 0.00 | 0.00 | 0.00 | 94 | 1012.2 |
| 20260505075556 | 9 | 272 | 0.0 | 0.0 | 0.00 | 0.00 | 0.00 | 94 | 1012.5 |
| 20260505075053 | 9 | 273 | 0.0 | 0.0 | 0.00 | 0.00 | 0.00 | 93 | 1012.4 |
| 20260505074550 | 9 | 273 | 0.0 | 0.0 | 0.00 | 0.00 | 0.00 | 93 | 1012.3 |
| 20260505074047 | 9 | 273 | 0.0 | 0.0 | 0.00 | 0.00 | 0.00 | 93 | 1012.4 |
| 20260505073544 | 10 | 269 | 0.0 | 0.0 | 0.00 | 0.00 | 0.00 | 93 | 1012.3 |
| 20260505073043 | 10 | 273 | 0.0 | 0.0 | 0.00 | 0.00 | 0.00 | 92 | 1012.2 |
| 20260505072538 | 10 | 274 | 0.0 | 0.0 | 0.00 | 0.00 | 0.00 | 92 | 1012.4 |
| 20260505072035 | 10 | 275 | 0.0 | 0.0 | 0.00 | 0.00 | 0.00 | 92 | 1012.5 |
| 20260505071530 | 10 | 274 | 0.0 | 0.0 | 0.00 | 0.00 | 0.00 | 92 | 1012.2 |
| 20260505071029 | 10 | 278 | 0.0 | 0.0 | 0.00 | 0.00 | 0.00 | 91 | 1012.4 |
| 20260505070526 | 10 | 282 | 0.0 | 0.0 | 0.00 | 0.00 | 0.00 | 91 | 1012.5 |
| 20260505070022 | 10 | 274 | 0.0 | 0.0 | 0.00 | 0.00 | 0.00 | 90 | 1012.5 |
| 20260505065518 | 10 | 273 | 0.0 | 0.0 | 0.00 | 0.00 | 0.00 | 90 | 1012.3 |
| 20260505065014 | 10 | 274 | 0.0 | 0.0 | 0.00 | 0.00 | 0.00 | 90 | 1012.2 |
| 20260505064512 | 10 | 269 | 0.0 | 0.0 | 0.00 | 0.00 | 0.00 | 89 | 1012.6 |
| 20260505064010 | 11 | 257 | 0.0 | 0.0 | 0.00 | 0.00 | 0.00 | 88 | 1012.2 |
| 20260505063507 | 11 | 273 | 0.0 | 0.0 | 0.00 | 0.00 | 0.00 | 87 | 1012.4 |
| 20260505063002 | 11 | 273 | 0.0 | 0.0 | 0.00 | 0.00 | 0.00 | 85 | 1012.5 |
| 20260505062459 | 11 | 272 | 0.0 | 0.0 | 0.00 | 0.00 | 0.00 | 85 | 1012.5 |
| 20260505061956 | 11 | 272 | 0.0 | 0.0 | 0.00 | 0.00 | 0.00 | 83 | 1012.6 |
| 20260505061454 | 11 | 274 | 0.0 | 0.0 | 0.00 | 0.00 | 0.00 | 83 | 1012.6 |
| 20260505060951 | 12 | 305 | 0.0 | 0.0 | 0.00 | 0.00 | 0.00 | 82 | 1012.7 |
| 20260505060449 | 11 | 303 | 0.0 | 0.0 | 0.00 | 0.00 | 0.00 | 83 | 1012.5 |
| 20260505055945 | 11 | 318 | 0.0 | 0.0 | 0.00 | 0.00 | 0.00 | 85 | 1012.8 |
| 20260505055441 | 11 | 280 | 0.0 | 0.0 | 0.00 | 0.00 | 0.00 | 84 | 1012.6 |
| 20260505054938 | 12 | 289 | 0.0 | 0.0 | 0.00 | 0.00 | 0.00 | 83 | 1012.5 |
| 20260505054435 | 12 | 288 | 0.0 | 0.0 | 0.00 | 0.00 | 0.00 | 83 | 1012.5 |
| 20260505053933 | 12 | 288 | 0.0 | 0.0 | 0.00 | 0.00 | 0.00 | 82 | 1012.5 |
| 20260505053430 | 12 | 289 | 0.0 | 0.0 | 0.00 | 0.00 | 0.00 | 81 | 1012.5 |
| 20260505052927 | 12 | 281 | 0.0 | 0.0 | 0.00 | 0.00 | 0.00 | 80 | 1012.7 |
| 20260505052424 | 12 | 291 | 0.0 | 0.0 | 0.00 | 0.00 | 0.00 | 79 | 1012.6 |
| 20260505051921 | 12 | 288 | 0.0 | 0.0 | 0.00 | 0.00 | 0.00 | 80 | 1012.7 |
| 20260505051418 | 12 | 291 | 0.0 | 0.0 | 0.00 | 0.00 | 0.00 | 79 | 1012.5 |
| 20260505050916 | 13 | 291 | 0.0 | 0.0 | 0.00 | 0.00 | 0.00 | 77 | 1012.6 |
| 20260505050414 | 13 | 302 | 0.0 | 0.0 | 0.00 | 0.00 | 0.00 | 77 | 1012.3 |